Location: Brownlee
(50.7397°N, 106.0159°W)
Time: 02:11:36
(UTC+00:00)

Tiangong - Pass Details

Date: 04 December 2022
Orbit: 382 x 386 km, 41.5° (Epoch: 05 February)

Event Time Altitude Azimuth Distance (km) Brightness Sun altitude
Rises 01:05:30 0° 234° (SW) 2,248 2.9 -18.8°
Reaches altitude 10° 01:08:11 10° 209° (SSW) 1,398 1.2 -19.2°
Maximum altitude 01:10:03 15° 173° (S) 1,154 0.3 -19.5°
Enters shadow 01:10:15 15° 168° (SSE) 1,157 0.3 -19.5°
